Weather reports worldwide

Advertisment
Foggia Amendola, Italy (16261): temperature & dewpoint: 09.09.2019 10:00:00 - 15.09.2019 10:00:00 (CEST)Foggia Amendola, Italy (16261): wind speed: 09.09.2019 10:00:00 - 15.09.2019 10:00:00 (CEST)Foggia Amendola, Italy (16261): wind direction: 09.09.2019 10:00:00 - 15.09.2019 10:00:00 (CEST)Foggia Amendola, Italy (16261): reduced air pressure: 09.09.2019 10:00:00 - 15.09.2019 10:00:00 (CEST)Foggia Amendola, Italy (16261): visibility: 09.09.2019 10:00:00 - 15.09.2019 10:00:00 (CEST)Foggia Amendola, Italy (16261): sunshine duration: 09.09.2019 10:00:00 - 15.09.2019 10:00:00 (CEST)
Date & Time tt [°C] td [°C] ff [km/h] ff [kn] dd ppp [hPa] vv [km] sd [min]
15.09.2019 10:00:00 - - - - - - - -
15.09.2019 09:00:00 22,0 16,0 18 10 WNW - 10 -
15.09.2019 08:00:00 19,6 16,4 15 8 WNW 1023,9 25 6
15.09.2019 07:00:00 20,0 17,0 18 10 WNW - 10 -
15.09.2019 06:00:00 20,0 19,0 18 10 W - 10 -
15.09.2019 05:00:00 20,0 18,5 16 9 WNW 1023,1 15 -
15.09.2019 04:00:00 20,0 20,0 18 10 W - 10 -
15.09.2019 03:00:00 20,0 20,0 18 10 WNW - 10 -
15.09.2019 02:00:00 20,4 20,2 21 11 WNW 1023,5 15 -
15.09.2019 01:00:00 21,0 21,0 16 9 W - 10 -
15.09.2019 00:00:00 20,0 17,0 15 8 WNW - 10 -
14.09.2019 23:00:00 20,0 17,8 9 5 WSW 1024,5 15 -
14.09.2019 22:00:00 22,0 18,0 15 8 WNW - 10 -
14.09.2019 21:00:00 23,0 19,0 15 8 WNW - 10 -
14.09.2019 20:00:00 23,4 18,1 15 8 WNW 1023,3 12 0
14.09.2019 19:00:00 25,0 16,0 22 12 WNW - 10 -
14.09.2019 18:00:00 28,0 16,0 26 14 WNW - 10 -
14.09.2019 17:00:00 28,6 15,5 31 17 WNW 1023,6 20 60
14.09.2019 16:00:00 29,0 17,0 22 12 NW - 10 -
14.09.2019 15:00:00 28,0 17,0 9 5 SSE - 10 -
14.09.2019 14:00:00 28,4 16,4 13 7 E 1024,3 20 60
14.09.2019 13:00:00 29,0 17,0 22 12 W - 10 -
14.09.2019 12:00:00 28,0 16,0 26 14 WNW - 10 -
14.09.2019 11:00:00 27,4 13,7 13 7 WNW 1025,0 20 60
14.09.2019 10:00:00 26,0 18,0 21 11 WNW - 10 -
14.09.2019 09:00:00 22,0 18,0 22 12 WNW - 10 -
14.09.2019 08:00:00 20,0 18,1 21 11 WNW 1025,1 10 0
14.09.2019 07:00:00 19,0 18,0 21 11 WNW - 10 -
14.09.2019 06:00:00 20,0 20,0 16 9 WNW - 10 -
14.09.2019 05:00:00 20,0 20,0 18 10 W 1025,1 10 0
14.09.2019 04:00:00 20,0 20,0 16 9 W - 10 -
14.09.2019 03:00:00 20,0 20,0 21 11 W - 10 -
14.09.2019 02:00:00 21,0 21,0 15 8 WNW 1025,5 10 0
14.09.2019 01:00:00 21,0 21,0 21 11 WNW - 10 -
14.09.2019 00:00:00 22,0 22,0 26 14 WNW - 10 -
13.09.2019 23:00:00 21,8 21,8 16 9 W 1026,1 10 0
13.09.2019 22:00:00 22,0 22,0 15 8 WSW - 10 -
13.09.2019 21:00:00 23,0 21,0 16 9 WNW - 10 -
13.09.2019 20:00:00 24,2 19,7 21 11 WNW 1025,5 12 18
13.09.2019 19:00:00 26,0 17,0 15 8 WNW - 10 -
13.09.2019 18:00:00 27,0 17,0 26 14 WNW - 10 -
13.09.2019 17:00:00 29,2 15,4 24 13 NW 1024,9 15 60
13.09.2019 16:00:00 29,0 16,0 21 11 NW - 10 -
13.09.2019 15:00:00 30,0 16,0 26 14 NNW - 10 -
13.09.2019 14:00:00 29,0 14,8 16 9 NNW 1025,7 15 60
13.09.2019 13:00:00 30,0 16,0 13 7 NE - 10 -
13.09.2019 12:00:00 29,0 19,0 21 11 NW - 10 -
13.09.2019 11:00:00 28,4 14,3 9 5 NNE 1026,7 15 60
13.09.2019 10:00:00 26,0 17,0 8 4 NW - 10 -
13.09.2019 09:00:00 24,0 22,0 18 10 WNW - 10 -
13.09.2019 08:00:00 21,2 19,3 21 11 W 1026,4 12 6
13.09.2019 07:00:00 21,0 19,0 18 10 W - 10 -
13.09.2019 06:00:00 21,0 21,0 15 8 W - 10 -
13.09.2019 05:00:00 21,4 20,6 21 11 WNW 1025,5 15 -
13.09.2019 04:00:00 23,0 22,0 21 11 WNW - 10 -
13.09.2019 03:00:00 23,0 21,0 16 9 NW - 10 -
13.09.2019 02:00:00 23,0 22,0 21 11 W 1025,1 15 -
13.09.2019 01:00:00 24,0 21,0 21 11 NW - 10 -
13.09.2019 00:00:00 24,0 20,0 26 14 NW - 10 -
12.09.2019 23:00:00 23,6 20,2 28 15 WNW 1025,3 12 -
12.09.2019 22:00:00 24,0 19,0 28 15 WNW - 10 -
12.09.2019 21:00:00 24,0 17,0 24 13 WNW - 10 -
12.09.2019 20:00:00 25,0 13,9 21 11 NW 1024,0 10 0
12.09.2019 19:00:00 25,0 14,0 34 18 WNW - 10 -
12.09.2019 18:00:00 27,0 17,0 29 16 NW - 10 -
12.09.2019 17:00:00 27,0 16,9 28 15 NW 1023,9 10 48
12.09.2019 16:00:00 28,0 18,0 24 13 WNW - 10 -
12.09.2019 15:00:00 28,0 18,0 26 14 NW - 10 -
12.09.2019 14:00:00 28,0 17,5 29 16 NW 1023,9 10 60
12.09.2019 13:00:00 27,0 18,0 31 17 WNW - 10 -
12.09.2019 12:00:00 27,0 19,0 28 15 WNW - 10 -
12.09.2019 11:00:00 26,0 17,6 31 17 WNW 1023,6 10 60
12.09.2019 10:00:00 24,0 18,0 29 16 WNW - 10 -
12.09.2019 09:00:00 21,0 16,0 24 13 WNW - 10 -
12.09.2019 08:00:00 19,0 17,8 22 12 W 1022,6 30 6
12.09.2019 07:00:00 19,0 17,0 18 10 W - 10 -
12.09.2019 06:00:00 19,0 18,0 16 9 W - 10 -
12.09.2019 05:00:00 19,4 19,4 22 12 WNW 1021,4 15 -
12.09.2019 04:00:00 19,0 19,0 18 10 W - 10 -
12.09.2019 03:00:00 18,0 18,0 16 9 WNW - 10 -
12.09.2019 02:00:00 19,0 19,0 16 9 WNW 1021,5 20 -
12.09.2019 01:00:00 20,0 20,0 16 9 W - 10 -
12.09.2019 00:00:00 20,0 20,0 15 8 WNW - 10 -
11.09.2019 23:00:00 20,6 20,3 13 7 WNW 1021,3 30 -
11.09.2019 22:00:00 22,0 20,0 11 6 W - 10 -
11.09.2019 21:00:00 22,0 20,0 11 6 WNW - 10 -
11.09.2019 20:00:00 24,6 19,4 13 7 WNW 1019,4 15 0
11.09.2019 19:00:00 26,0 19,0 21 11 WNW - 10 -
11.09.2019 18:00:00 28,0 19,0 24 13 WNW - 10 -
11.09.2019 17:00:00 28,4 17,3 24 13 W 1018,1 20 42
11.09.2019 16:00:00 28,0 17,0 9 5 E - 10 -
11.09.2019 15:00:00 29,0 17,0 5 3 - - 10 -
11.09.2019 14:00:00 28,8 17,0 18 10 E 1018,1 15 54
11.09.2019 13:00:00 28,0 18,0 22 12 WNW - 10 -
11.09.2019 12:00:00 27,0 18,0 22 12 WNW - 10 -
11.09.2019 11:00:00 25,8 18,5 18 10 WNW 1018,1 15 60
11.09.2019 10:00:00 24,0 19,0 18 10 WNW - 10 -
11.09.2019 09:00:00 20,0 17,0 15 8 W - 10 -
11.09.2019 08:00:00 17,8 17,8 15 8 WNW 1016,8 30 6
11.09.2019 07:00:00 18,0 18,0 13 7 W - 10 -
11.09.2019 06:00:00 18,0 17,0 15 8 WNW - 10 -
11.09.2019 05:00:00 17,0 16,5 13 7 W 1015,8 12 -
11.09.2019 04:00:00 17,0 15,0 13 7 WNW - 10 -
11.09.2019 03:00:00 17,0 15,0 16 9 WNW - 10 -
11.09.2019 02:00:00 18,4 16,0 11 6 W 1015,8 12 -
11.09.2019 01:00:00 19,0 16,0 9 5 W - 10 -
11.09.2019 00:00:00 20,0 16,0 9 5 W - 10 -
10.09.2019 23:00:00 21,6 15,4 15 8 WNW 1015,2 12 -
10.09.2019 22:00:00 23,0 14,0 4 2 NNE - 10 -
10.09.2019 21:00:00 23,0 14,0 8 4 ENE - 10 -
10.09.2019 20:00:00 23,0 10,1 11 6 E 1014,0 40 6
10.09.2019 19:00:00 25,0 11,0 15 8 E - 10 -
10.09.2019 18:00:00 27,0 12,0 18 10 E - 10 -
10.09.2019 17:00:00 27,6 11,2 18 10 E 1013,8 30 60
10.09.2019 16:00:00 29,0 10,0 13 7 E - 10 -
10.09.2019 15:00:00 29,0 10,0 15 8 E - 10 -
10.09.2019 14:00:00 28,2 9,5 15 8 E 1014,3 30 60
10.09.2019 13:00:00 28,0 9,0 11 6 E - 10 -
10.09.2019 12:00:00 27,0 11,0 13 7 E - 10 -
10.09.2019 11:00:00 25,0 13,2 9 5 E 1015,2 15 60
10.09.2019 10:00:00 23,0 17,0 5 3 WSW - 10 -
10.09.2019 09:00:00 20,0 16,0 5 3 WNW - 10 -
10.09.2019 08:00:00 16,0 15,2 5 3 WNW 1015,2 10 12
10.09.2019 07:00:00 16,0 16,0 8 4 W - 10 -
10.09.2019 06:00:00 16,0 16,0 9 5 SW - 10 -
10.09.2019 05:00:00 16,0 16,0 8 4 WSW 1015,2 10 0
10.09.2019 04:00:00 16,0 16,0 8 4 WSW - 10 -
10.09.2019 03:00:00 18,0 16,0 8 4 W - 10 -
10.09.2019 02:00:00 18,0 16,3 4 2 N 1015,1 10 0
10.09.2019 01:00:00 19,0 16,0 5 3 - - 10 -
10.09.2019 00:00:00 20,0 16,0 9 5 SW - 10 -
09.09.2019 23:00:00 20,0 15,9 11 6 SSW 1014,9 10 0
09.09.2019 22:00:00 21,0 15,0 8 4 S - 10 -
09.09.2019 21:00:00 23,0 15,0 8 4 S - 10 -
09.09.2019 20:00:00 24,0 16,3 8 4 SW 1013,7 15 24
09.09.2019 19:00:00 27,0 14,0 13 7 SSW - 10 -
09.09.2019 18:00:00 29,0 11,0 18 10 SW - 10 -
09.09.2019 17:00:00 29,0 7,6 11 6 WSW 1012,3 30 60
09.09.2019 16:00:00 29,0 8,0 16 9 WSW - 10 -
09.09.2019 15:00:00 29,0 8,0 24 13 W - 10 -
09.09.2019 14:00:00 28,0 12,0 24 13 W 1012,6 20 60
09.09.2019 13:00:00 27,0 12,0 26 14 WSW - 10 -
09.09.2019 12:00:00 26,0 15,0 24 13 SW - 10 -
09.09.2019 11:00:00 25,0 17,5 21 11 SW 1012,9 30 60
09.09.2019 10:00:00 24,0 17,0 21 11 SW - 10 -

tt = temperature
td = dewpoint
ff = wind speed
dd = wind direction
ppp = reduced air pressure
vv = visibility
sd = sunshine duration

Next stations